Location: Street
(51.1247°N, 2.7429°W)
Time: 18:27:12
(UTC+00:00)

N. Korean satellite - Pass Details

Date: 04 November 2020
Orbit: 453 x 503 km, 97.2° (Epoch: 04 December)

Event Time Altitude Azimuth Distance (km) Brightness Sun altitude
Rises 17:13:36 0° 184° (S) 2,511 10.5 -5.9°
Reaches altitude 10° 17:15:46 10° 193° (SSW) 1,630 9.7 -6.2°
Maximum altitude 17:19:02 37° 262° (W) 743 8.3 -6.7°
Drops below altitude 10° 17:22:18 10° 332° (NNW) 1,621 9.4 -7.2°
Sets 17:24:26 0° 341° (NNW) 2,495 10.2 -7.5°
